OK1KZE-6 Weather Reports


time (UTC)temp
C
wind
direction
speed
KPH
gust
KPH
rain 1hr
cm
rain 24hr
cm
rain mn
cm
humidity
%
barometer
mb
20260507170508 12 94 17.7 17.7 0.00 0.00 0.00 76 1015.2
20260507170008 12 94 17.7 17.7 0.00 0.00 0.00 74 1015.1
20260507165507 12 94 17.7 17.7 0.00 0.00 0.00 73 1015.3
20260507165008 12 94 17.7 17.7 0.00 0.00 0.00 73 1015.3
20260507164508 12 94 17.7 17.7 0.00 0.00 0.00 74 1015.1
20260507164009 12 94 17.7 17.7 0.00 0.00 0.00 73 1015.1
20260507163508 12 94 17.7 17.7 0.00 0.00 0.00 72 1015.2
20260507163007 12 94 17.7 17.7 0.00 0.00 0.00 71 1015.1
20260507162507 12 94 17.7 17.7 0.00 0.00 0.00 71 1015.1
20260507162007 13 94 17.7 17.7 0.00 0.00 0.00 70 1014.9
20260507161510 -17 0 0.0 0.0 0.00 0.00 0.00 100
20260507161009 -17 0 0.0 0.0 0.00 0.00 0.00 100
20260507160508 13 94 17.7 17.7 0.00 0.00 0.00 67 1014.9
20260507160008 13 94 17.7 17.7 0.00 0.00 0.00 67 1014.9
20260507155507 13 94 17.7 17.7 0.00 0.00 0.00 69 1015.0
20260507155007 13 94 17.7 17.7 0.00 0.00 0.00 68 1014.8
20260507154507 13 94 17.7 17.7 0.00 0.00 0.00 67 1014.6
20260507154009 14 94 17.7 17.7 0.00 0.00 0.00 66 1015.0
20260507153508 13 94 17.7 17.7 0.00 0.00 0.00 66 1014.7
20260507152509 13 94 17.7 17.7 0.00 0.00 0.00 66 1014.6
20260507152008 14 94 17.7 17.7 0.00 0.00 0.00 65 1014.8
20260507151509 13 94 17.7 17.7 0.00 0.00 0.00 68 1014.5
20260507151007 13 94 17.7 17.7 0.00 0.00 0.00 68 1014.7
20260507150508 14 94 17.7 17.7 0.00 0.00 0.00 66 1014.6
20260507150008 15 94 17.7 17.7 0.00 0.00 0.00 67 1014.6
20260507145507 14 94 17.7 17.7 0.00 0.00 0.00 66 1014.4
20260507145007 14 94 17.7 17.7 0.00 0.00 0.00 65 1014.2
20260507144508 15 94 17.7 17.7 0.00 0.00 0.00 62 1014.5
20260507144008 15 94 17.7 17.7 0.00 0.00 0.00 59 1014.4
20260507143508 15 94 17.7 17.7 0.00 0.00 0.00 63 1014.4
20260507143008 15 94 17.7 17.7 0.00 0.00 0.00 63 1014.5
20260507142509 15 94 17.7 17.7 0.00 0.00 0.00 63 1014.5
20260507142008 15 94 17.7 17.7 0.00 0.00 0.00 62 1014.3
20260507141509 15 94 17.7 17.7 0.00 0.00 0.00 61 1014.4
20260507141008 15 94 17.7 17.7 0.00 0.00 0.00 62 1014.4
20260507140508 15 94 17.7 17.7 0.00 0.00 0.00 62 1014.4
20260507140007 15 94 17.7 17.7 0.00 0.00 0.00 60 1014.2
20260507135507 15 94 17.7 17.7 0.00 0.00 0.00 60 1014.4
20260507135008 15 94 17.7 17.7 0.00 0.00 0.00 59 1014.4
20260507134507 15 94 17.7 17.7 0.00 0.00 0.00 61 1014.5
20260507134008 15 94 17.7 17.7 0.00 0.00 0.00 62 1014.5
20260507133507 15 94 17.7 17.7 0.00 0.00 0.00 63 1014.6
20260507133007 14 94 17.7 17.7 0.00 0.00 0.00 63 1014.5
20260507132507 14 94 17.7 17.7 0.00 0.00 0.00 64 1014.4
20260507132008 14 94 17.7 17.7 0.00 0.00 0.00 63 1014.5
20260507131507 14 94 17.7 17.7 0.00 0.00 0.00 65 1014.6
20260507131008 14 94 17.7 17.7 0.00 0.00 0.00 64 1014.5
20260507130507 14 94 17.7 17.7 0.00 0.00 0.00 64 1014.7
20260507130008 14 94 17.7 17.7 0.00 0.00 0.00 64 1014.4
20260507125507 14 94 17.7 17.7 0.00 0.00 0.00 64 1014.4
20260507125007 14 94 17.7 17.7 0.00 0.00 0.00 63 1014.4
20260507124507 14 94 17.7 17.7 0.00 0.00 0.00 64 1014.1
20260507124008 13 94 17.7 17.7 0.00 0.00 0.00 65 1014.3
20260507123507 13 94 17.7 17.7 0.00 0.00 0.00 65 1014.4
20260507123008 13 94 17.7 17.7 0.00 0.00 0.00 64 1014.4
20260507122507 13 94 17.7 17.7 0.00 0.00 0.00 66 1014.6
20260507122007 13 94 17.7 17.7 0.00 0.00 0.00 67 1014.5
20260507121508 13 94 17.7 17.7 0.00 0.00 0.00 67 1014.3
20260507121007 13 94 17.7 17.7 0.00 0.00 0.00 66 1014.3
20260507120508 13 94 17.7 17.7 0.00 0.00 0.00 66 1014.3
20260507120008 13 94 17.7 17.7 0.00 0.00 0.00 67 1014.2
20260507115507 13 94 17.7 17.7 0.00 0.00 0.00 68 1014.3
20260507115007 13 94 17.7 17.7 0.00 0.00 0.00 68 1014.1
20260507114507 13 94 17.7 17.7 0.00 0.00 0.00 68 1014.2
20260507114007 13 94 17.7 17.7 0.00 0.00 0.00 67 1014.4
20260507113508 13 94 17.7 17.7 0.00 0.00 0.00 67 1014.2
20260507113008 13 94 17.7 17.7 0.00 0.00 0.00 69 1014.2
20260507112508 13 94 17.7 17.7 0.00 0.00 0.00 68 1014.0
20260507112008 13 94 17.7 17.7 0.00 0.00 0.00 66 1014.1
20260507111509 13 94 17.7 17.7 0.00 0.00 0.00 65 1014.0
20260507111008 13 94 17.7 17.7 0.00 0.00 0.00 66 1014.0
20260507110507 13 94 17.7 17.7 0.00 0.00 0.00 66 1014.1
20260507110007 13 94 17.7 17.7 0.00 0.00 0.00 64 1014.0
20260507105508 13 94 17.7 17.7 0.00 0.00 0.00 65 1013.9
20260507105008 13 94 17.7 17.7 0.00 0.00 0.00 65 1013.9
20260507104508 13 94 17.7 17.7 0.00 0.00 0.00 65 1014.0
20260507104008 13 94 17.7 17.7 0.00 0.00 0.00 64 1013.9
20260507103508 13 94 17.7 17.7 0.00 0.00 0.00 67 1013.8
20260507103007 13 94 17.7 17.7 0.00 0.00 0.00 66 1013.7
20260507102508 13 94 17.7 17.7 0.00 0.00 0.00 68 1013.7
20260507102007 13 94 17.7 17.7 0.00 0.00 0.00 67 1014.0
20260507101508 13 94 17.7 17.7 0.00 0.00 0.00 68 1013.6
20260507101007 12 94 17.7 17.7 0.00 0.00 0.00 68 1013.7
20260507100507 12 94 17.7 17.7 0.00 0.00 0.00 70 1013.7
20260507100009 13 94 17.7 17.7 0.00 0.00 0.00 72 1013.5
20260507095508 13 94 17.7 17.7 0.00 0.00 0.00 71 1013.6
20260507095008 12 94 17.7 17.7 0.00 0.00 0.00 72 1013.5
20260507094508 12 94 17.7 17.7 0.00 0.00 0.00 73 1013.6
20260507094007 12 94 17.7 17.7 0.00 0.00 0.00 74 1013.5
20260507093507 13 94 17.7 17.7 0.00 0.00 0.00 74 1013.4
20260507093008 13 94 17.7 17.7 0.00 0.00 0.00 73 1013.4
20260507092508 13 94 17.7 17.7 0.00 0.00 0.00 74 1013.4
20260507092008 12 94 17.7 17.7 0.00 0.00 0.00 74 1013.5
20260507091508 12 94 17.7 17.7 0.00 0.00 0.00 74 1013.3
20260507091007 12 94 17.7 17.7 0.00 0.00 0.00 76 1013.3
20260507090509 12 94 17.7 17.7 0.00 0.00 0.00 75 1013.5
20260507090008 12 94 17.7 17.7 0.00 0.00 0.00 75 1013.3
20260507085507 13 94 17.7 17.7 0.00 0.00 0.00 76 1013.0
20260507085008 12 94 17.7 17.7 0.00 0.00 0.00 75 1013.0
20260507084507 13 94 17.7 17.7 0.00 0.00 0.00 75 1013.1
20260507084009 12 94 17.7 17.7 0.00 0.00 0.00 75 1012.7
20260507083509 12 94 17.7 17.7 0.00 0.00 0.00 77 1012.9
20260507083007 12 94 17.7 17.7 0.00 0.00 0.00 76 1012.7
20260507082508 12 94 17.7 17.7 0.00 0.00 0.00 79 1012.7
20260507082007 12 94 17.7 17.7 0.00 0.00 0.00 79 1012.8
20260507081508 12 94 17.7 17.7 0.00 0.00 0.00 80 1012.8
20260507081008 12 94 17.7 17.7 0.00 0.00 0.00 81 1012.7
20260507080507 12 94 17.7 17.7 0.00 0.00 0.00 80 1012.8
20260507080008 12 94 17.7 17.7 0.00 0.00 0.00 79 1012.6
20260507075507 12 94 17.7 17.7 0.00 0.00 0.00 81 1012.6
20260507075008 11 94 17.7 17.7 0.00 0.00 0.00 83 1012.7
20260507074507 11 94 17.7 17.7 0.00 0.00 0.00 84 1012.7
20260507074008 11 94 17.7 17.7 0.00 0.00 0.00 84 1012.6
20260507073507 11 94 17.7 17.7 0.00 0.00 0.00 85 1012.5
20260507072507 12 94 17.7 17.7 0.00 0.00 0.00 84 1012.5
20260507072007 12 94 17.7 17.7 0.00 0.00 0.00 85 1012.5
20260507071507 12 94 17.7 17.7 0.00 0.00 0.00 85 1012.4
20260507071007 12 94 17.7 17.7 0.00 0.00 0.00 86 1012.3
20260507070507 12 94 17.7 17.7 0.00 0.00 0.00 86 1012.3
20260507070011 12 94 17.7 17.7 0.00 0.00 0.00 86 1012.1
20260507065507 11 94 17.7 17.7 0.00 0.00 0.00 88 1012.1
20260507065008 11 94 17.7 17.7 0.00 0.00 0.00 91 1012.2
20260507064507 11 94 17.7 17.7 0.00 0.00 0.00 92 1012.1
20260507064007 11 94 17.7 17.7 0.00 0.00 0.00 91 1012.0
20260507063008 11 94 17.7 17.7 0.00 0.00 0.00 89 1012.1
20260507062508 11 94 17.7 17.7 0.00 0.00 0.00 89 1011.9
20260507062007 11 94 17.7 17.7 0.00 0.00 0.00 91 1011.8
20260507061508 11 94 17.7 17.7 0.00 0.00 0.00 92 1011.8
20260507061009 11 94 17.7 17.7 0.00 0.00 0.00 93 1011.7
20260507060507 11 94 17.7 17.7 0.00 0.00 0.00 93 1011.9
20260507060008 11 94 17.7 17.7 0.00 0.00 0.00 93 1011.6
20260507055506 11 94 17.7 17.7 0.00 0.00 0.00 94 1011.6
20260507055008 11 94 17.7 17.7 0.00 0.00 0.00 93 1011.6
20260507054508 11 94 17.7 17.7 0.00 0.00 0.00 93 1011.3
20260507054007 11 94 17.7 17.7 0.00 0.00 0.00 93 1011.4
20260507053508 11 94 17.7 17.7 0.00 0.00 0.00 93 1011.3
20260507053007 11 94 17.7 17.7 0.00 0.00 0.00 93 1011.2
20260507052509 10 94 17.7 17.7 0.00 0.00 0.00 93 1011.2
20260507052007 10 94 17.7 17.7 0.00 0.00 0.00 94 1011.1
20260507051507 10 94 17.7 17.7 0.00 0.00 0.00 95 1011.1
20260507051007 10 94 17.7 17.7 0.00 0.00 0.00 95 1011.1
20260507050508 10 94 17.7 17.7 0.00 0.00 0.00 95 1011.0
20260507050008 10 94 17.7 17.7 0.00 0.00 0.00 95 1011.0
20260507045507 10 94 17.7 17.7 0.00 0.00 0.00 96 1011.0
20260507045008 10 94 17.7 17.7 0.00 0.00 0.00 95 1010.9
20260507044507 10 94 17.7 17.7 0.00 0.00 0.00 95 1010.5
20260507044007 10 94 17.7 17.7 0.00 0.00 0.00 95 1010.8
20260507043508 10 94 17.7 17.7 0.00 0.00 0.00 94 1010.7
20260507043007 10 94 17.7 17.7 0.00 0.00 0.00 94 1010.6
20260507042507 10 94 17.7 17.7 0.00 0.00 0.00 95 1010.5
20260507042008 10 94 17.7 17.7 0.00 0.00 0.00 95 1010.5
20260507041007 10 94 17.7 17.7 0.00 0.00 0.00 96 1010.2
20260507040508 10 94 17.7 17.7 0.00 0.00 0.00 96 1010.4
20260507040008 10 94 17.7 17.7 0.00 0.00 0.00 95 1010.2
20260507035507 10 94 17.7 17.7 0.00 0.00 0.00 96 1010.3
20260507035008 10 94 17.7 17.7 0.00 0.00 0.00 96 1010.1
20260507034507 10 94 17.7 17.7 0.00 0.00 0.00 95 1010.2
20260507034008 10 94 17.7 17.7 0.00 0.00 0.00 96 1010.1
20260507033507 10 94 17.7 17.7 0.00 0.00 0.00 95 1010.0
20260507033008 10 94 17.7 17.7 0.00 0.00 0.00 96 1010.1
20260507032508 10 94 17.7 17.7 0.00 0.00 0.00 95 1010.0
20260507032008 10 94 17.7 17.7 0.00 0.00 0.00 95 1010.0
20260507031507 10 94 17.7 17.7 0.00 0.00 0.00 94 1010.0
20260507031006 10 94 17.7 17.7 0.00 0.00 0.00 95 1009.9
20260507030507 10 94 17.7 17.7 0.00 0.00 0.00 95 1010.0
20260507030008 10 94 17.7 17.7 0.00 0.00 0.00 96 1009.9
20260507025507 10 94 17.7 17.7 0.00 0.00 0.00 96 1009.9
20260507025007 10 94 17.7 17.7 0.00 0.00 0.00 97 1010.1
20260507024508 10 94 17.7 17.7 0.00 0.00 0.00 96 1009.9
20260507024007 10 94 17.7 17.7 0.00 0.00 0.00 97 1009.6
20260507023507 10 94 17.7 17.7 0.00 0.00 0.00 98 1010.0
20260507023007 10 94 17.7 17.7 0.00 0.00 0.00 98 1010.0
20260507022507 10 94 17.7 17.7 0.00 0.00 0.00 98 1009.7
20260507022007 10 94 17.7 17.7 0.00 0.00 0.00 98 1009.7
20260507021508 10 94 17.7 17.7 0.00 0.00 0.00 98 1010.1
20260507021007 10 94 17.7 17.7 0.00 0.00 0.00 98 1009.8
20260507020507 10 94 17.7 17.7 0.00 0.00 0.00 97 1009.7
20260507020008 10 94 17.7 17.7 0.00 0.00 0.00 97 1009.9
20260507015507 10 94 17.7 17.7 0.00 0.00 0.00 97 1009.9
20260507015008 10 94 17.7 17.7 0.00 0.00 0.00 97 1010.0
20260507014507 10 94 17.7 17.7 0.00 0.00 0.00 97 1009.9
20260507014008 10 94 17.7 17.7 0.00 0.00 0.00 98 1010.0
20260507013507 10 94 17.7 17.7 0.00 0.00 0.00 98 1009.7
20260507013008 10 94 17.7 17.7 0.00 0.00 0.00 98 1009.7
20260507012507 11 94 17.7 17.7 0.00 0.00 0.00 97 1009.7
20260507012007 11 94 17.7 17.7 0.00 0.00 0.00 97 1009.7
20260507011507 11 94 17.7 17.7 0.00 0.00 0.00 97 1009.5
20260507011008 11 94 17.7 17.7 0.00 0.00 0.00 97 1009.8
20260507010507 11 94 17.7 17.7 0.00 0.00 0.00 98 1009.6
20260507010008 11 94 17.7 17.7 0.00 0.00 0.00 98 1009.3
20260507005507 11 94 17.7 17.7 0.00 0.00 0.00 98 1009.4
20260507005007 11 94 17.7 17.7 0.00 0.00 0.00 98 1009.4
20260507004507 11 94 17.7 17.7 0.00 0.00 0.00 98 1009.4
20260507004007 11 94 17.7 17.7 0.00 0.00 0.00 98 1009.2
20260507003508 11 94 17.7 17.7 0.00 0.00 0.00 98 1009.3
20260507003008 11 94 17.7 17.7 0.00 0.00 0.00 98 1009.3
20260507002508 11 94 17.7 17.7 0.00 0.00 0.00 98 1009.4
20260507002007 11 94 17.7 17.7 0.00 0.00 0.00 97 1009.3
20260507001508 11 94 17.7 17.7 0.00 0.00 0.00 97 1009.2
20260507001007 11 94 17.7 17.7 0.00 0.00 0.00 97 1009.2
20260507000508 11 94 17.7 17.7 0.00 0.00 0.00 97 1009.0
20260507000008 11 94 17.7 17.7 0.00 0.00 0.00 96 1009.1
20260506235508 11 94 17.7 17.7 0.00 0.00 0.00 96 1009.2
20260506235007 11 94 17.7 17.7 0.00 0.00 0.00 95 1009.0
20260506234508 11 94 17.7 17.7 0.00 0.00 0.00 98 1008.9
20260506234008 11 94 17.7 17.7 0.00 0.00 0.00 98 1008.8
20260506233507 11 94 17.7 17.7 0.00 0.00 0.00 98 1008.7
20260506233007 11 94 17.7 17.7 0.00 0.00 0.00 97 1008.6
20260506232007 12 94 17.7 17.7 0.00 0.00 0.00 96 1009.0
20260506231508 11 94 17.7 17.7 0.00 0.00 0.00 96 1009.2
20260506231007 11 94 17.7 17.7 0.00 0.00 0.00 97 1009.0
20260506230508 11 94 17.7 17.7 0.00 0.00 0.00 97 1008.7
20260506230007 11 94 17.7 17.7 0.00 0.00 0.00 97 1008.7
20260506225507 11 94 17.7 17.7 0.00 0.00 0.00 99 1008.7
20260506225008 11 94 17.7 17.7 0.00 0.00 0.00 99 1008.9
20260506224508 11 94 17.7 17.7 0.00 0.00 0.00 99 1008.8
20260506224007 11 94 17.7 17.7 0.00 0.00 0.00 99 1008.8
20260506223508 11 94 17.7 17.7 0.00 0.00 0.00 99 1008.9
20260506223008 11 94 17.7 17.7 0.00 0.00 0.00 99 1009.0
20260506222507 12 94 17.7 17.7 0.00 0.00 0.00 99 1009.0
20260506222007 12 94 17.7 17.7 0.00 0.00 0.00 99 1008.8
20260506221508 12 94 17.7 17.7 0.00 0.00 0.00 98 1008.9
20260506221007 12 94 17.7 17.7 0.00 0.00 0.00 98 1008.7
20260506220008 12 94 17.7 17.7 0.00 0.00 0.00 98 1008.5
20260506215508 12 94 17.7 17.7 0.00 0.00 0.00 98 1008.6
20260506215007 12 94 17.7 17.7 0.00 0.00 0.00 99 1008.5
20260506214507 12 94 17.7 17.7 0.00 0.00 0.00 99 1008.3
20260506214008 11 94 17.7 17.7 0.00 0.00 0.00 99 1008.3
20260506213508 11 94 17.7 17.7 0.00 0.00 0.00 99 1008.4
20260506213007 12 94 17.7 17.7 0.00 0.00 0.00 99 1008.5
20260506212507 12 94 17.7 17.7 0.00 0.00 0.00 99 1008.8
20260506212007 12 94 17.7 17.7 0.00 0.00 0.00 99 1008.5
20260506211509 12 94 17.7 17.7 0.00 0.00 0.00 98 1008.4
20260506211007 12 94 17.7 17.7 0.00 0.00 0.00 98 1008.6
20260506210507 12 94 17.7 17.7 0.00 0.00 0.00 98 1008.4
20260506210007 12 94 17.7 17.7 0.00 0.00 0.00 98 1008.6
20260506205507 12 94 17.7 17.7 0.00 0.00 0.00 98 1008.7
20260506204508 12 94 17.7 17.7 0.00 0.00 0.00 97 1008.7
20260506204007 11 94 17.7 17.7 0.00 0.00 0.00 97 1008.9
20260506203507 12 94 17.7 17.7 0.00 0.00 0.00 97 1009.0
20260506203008 12 94 17.7 17.7 0.00 0.00 0.00 97 1009.0
20260506202507 12 94 17.7 17.7 0.00 0.00 0.00 95 1008.7
20260506202006 13 94 17.7 17.7 0.00 0.00 0.00 92 1009.2
20260506201507 13 94 17.7 17.7 0.00 0.00 0.00 88 1008.8
20260506201006 13 94 17.7 17.7 0.00 0.00 0.00 88 1008.8
20260506200507 13 94 17.7 17.7 0.00 0.00 0.00 86 1008.5
20260506200008 13 94 17.7 17.7 0.00 0.00 0.00 87 1008.1
20260506195507 13 94 17.7 17.7 0.00 0.00 0.00 87 1007.6
20260506195008 13 94 17.7 17.7 0.00 0.00 0.00 87 1007.6
20260506194508 13 94 17.7 17.7 0.00 0.00 0.00 87 1007.7
20260506194007 13 94 17.7 17.7 0.00 0.00 0.00 86 1007.7
20260506193508 13 94 17.7 17.7 0.00 0.00 0.00 86 1007.6
20260506193007 13 94 17.7 17.7 0.00 0.00 0.00 86 1007.8
20260506192507 13 94 17.7 17.7 0.00 0.00 0.00 87 1007.8
20260506192008 13 94 17.7 17.7 0.00 0.00 0.00 86 1007.7
20260506191508 13 94 17.7 17.7 0.00 0.00 0.00 86 1007.4
20260506191008 13 94 17.7 17.7 0.00 0.00 0.00 85 1007.3
20260506190507 13 94 17.7 17.7 0.00 0.00 0.00 85 1007.4
20260506190008 13 94 17.7 17.7 0.00 0.00 0.00 86 1007.5
20260506185008 13 94 17.7 17.7 0.00 0.00 0.00 89 1007.3
20260506184508 13 94 17.7 17.7 0.00 0.00 0.00 88 1007.2
20260506184009 13 94 17.7 17.7 0.00 0.00 0.00 88 1007.2
20260506183507 13 94 17.7 17.7 0.00 0.00 0.00 86 1007.0
20260506183007 13 94 17.7 17.7 0.00 0.00 0.00 84 1006.7
20260506182507 13 94 17.7 17.7 0.00 0.00 0.00 85 1006.7
20260506182007 13 94 17.7 17.7 0.00 0.00 0.00 86 1006.5
20260506181508 13 94 17.7 17.7 0.00 0.00 0.00 85 1006.6
20260506181007 14 94 17.7 17.7 0.00 0.00 0.00 84 1006.7
20260506180508 14 94 17.7 17.7 0.00 0.00 0.00 84 1006.5
20260506180008 14 94 17.7 17.7 0.00 0.00 0.00 84 1006.6
20260506175507 14 94 17.7 17.7 0.00 0.00 0.00 85 1006.5
20260506175007 14 94 17.7 17.7 0.00 0.00 0.00 84 1006.5
20260506174508 14 94 17.7 17.7 0.00 0.00 0.00 84 1006.6
20260506174007 15 94 17.7 17.7 0.00 0.00 0.00 83 1006.7
20260506173507 15 94 17.7 17.7 0.00 0.00 0.00 82 1006.5
20260506173009 15 94 17.7 17.7 0.00 0.00 0.00 81 1006.4
20260506172508 15 94 17.7 17.7 0.00 0.00 0.00 80 1006.6
20260506172007 15 94 17.7 17.7 0.00 0.00 0.00 78 1006.6
20260506171509 15 94 17.7 17.7 0.00 0.00 0.00 76 1006.6
20260506171008 15 94 17.7 17.7 0.00 0.00 0.00 72 1006.7